Alicante, Spain

6:37 PM CEST on October 01, 2016 (GMT +0200)
Alicante

Weather History for LEAL - April, 2014

Change the Weather History Date:

Thursday, April 3, 2014

  Actual Average Record
Temperature  
Mean Temperature 62 °F -  
Max Temperature 70 °F 67 °F 77 °F (1999)
Min Temperature 53 °F 49 °F 44 °F (1997)
Degree Days  
Heating Degree Days 4    
Growing Degree Days 12 (Base 50)    
Moisture  
Dew Point 44 °F    
Average Humidity 56    
Maximum Humidity 100    
Minimum Humidity 17    
Precipitation  
Precipitation 0.00 in - - ()
Sea Level Pressure  
Sea Level Pressure 29.58 in    
Wind  
Wind Speed 9 mph ()    
Max Wind Speed 23 mph    
Max Gust Speed 31 mph    
Visibility 7.4 miles    
Events Rain    
Averages and records for this station are not official NWS values.
T = Trace of Precipitation, MM = Missing Value Source: Averaged Metar Reports

Daily Weather History Graph

Daily Weather History Graph

Search for Another Location

Airport or City:

Trip Planner

Search our weather history database for the weather conditions in past years. The results will help you decide how hot, cold, wet, or windy it might be!

Date:

Astronomy

Apr. 03, 2014 Rise Set
Actual Time 7:44 AM CEST 8:27 PM CEST
Civil Twilight 7:17 AM CEST 8:53 PM CEST
Nautical Twilight 6:46 AM CEST 9:25 PM CEST
Astronomical Twilight 6:13 AM CEST 9:57 PM CEST
Moon 10:04 AM CEST (4/3) No Moon Set
Length of Visible Light 13h 35m
Length of Day
12h 42m
Waxing Crescent, 15% of the Moon is Illuminated
Apr 3
Waxing Crescent
Apr 7
First Quarter
Apr 15
Full
Apr 22
Last Quarter
Apr 29
New

Hourly Weather History & Observations

Time (CEST) Temp. Dew Point Humidity Pressure Visibility Wind Dir Wind Speed Gust Speed Precip Events Conditions
12:00 AM 59.0 °F 55.4 °F 88% 29.59 in 6.2 mi Variable 2.3 mph - N/A Rain Rain
12:30 AM 57.2 °F 55.4 °F 94% 29.56 in 5.6 mi ENE 6.9 mph - N/A   Mostly Cloudy
1:00 AM 57.2 °F 57.2 °F 100% 29.56 in 5.6 mi NE 5.8 mph - N/A Rain Light Rain
1:30 AM 57.2 °F 57.2 °F 100% 29.53 in 5.6 mi North 3.5 mph - N/A Rain Light Rain
2:00 AM 57.2 °F 55.4 °F 94% 29.53 in 5.6 mi Calm Calm - N/A   Mostly Cloudy
2:30 AM 57.2 °F 55.4 °F 94% 29.53 in 5.6 mi Variable 1.2 mph - N/A   Mostly Cloudy
3:00 AM 57.2 °F 53.6 °F 88% 29.53 in 5.6 mi Calm Calm - N/A   Mostly Cloudy
4:00 AM 55.4 °F 50.0 °F 82% 29.50 in 5.6 mi WNW 6.9 mph - N/A   Mostly Cloudy
4:30 AM 57.2 °F 50.0 °F 77% 29.50 in 5.6 mi WNW 9.2 mph - N/A   Mostly Cloudy
5:00 AM 55.4 °F 50.0 °F 82% 29.50 in 6.2 mi West 12.7 mph - N/A   Mostly Cloudy
5:30 AM 55.4 °F 50.0 °F 82% 29.50 in 6.2 mi West 10.4 mph - N/A   Mostly Cloudy
6:00 AM 53.6 °F 51.8 °F 94% 29.50 in 6.2 mi WSW 8.1 mph - N/A   Mostly Cloudy
6:30 AM 53.6 °F 50.0 °F 88% 29.50 in 6.2 mi WSW 6.9 mph - N/A   Mostly Cloudy
7:00 AM 53.6 °F 51.8 °F 94% 29.50 in 6.2 mi West 5.8 mph - N/A   Mostly Cloudy
7:30 AM 53.6 °F 50.0 °F 88% 29.50 in 6.2 mi West 4.6 mph - N/A   Mostly Cloudy
8:00 AM 54 °F 51 °F 86% 29.54 in 19 mi SW 6.9 mph - -   Scattered Clouds
8:00 AM 53.6 °F 50.0 °F 88% 29.53 in 6.2 mi SW 5.8 mph - N/A   Mostly Cloudy
8:30 AM 53.6 °F 51.8 °F 94% 29.53 in 6.2 mi SW 8.1 mph - N/A   Mostly Cloudy
9:00 AM 55 °F 52 °F 85% 29.56 in - SW 10.4 mph - -  
9:00 AM 55.4 °F 51.8 °F 88% 29.56 in 6.2 mi SW 9.2 mph - N/A   Mostly Cloudy
9:30 AM 55.4 °F 51.8 °F 88% 29.56 in 6.2 mi SW 8.1 mph - N/A   Mostly Cloudy
10:00 AM 56 °F 50 °F 75% 29.58 in - SW 6.9 mph - -  
10:00 AM 55.4 °F 50.0 °F 82% 29.56 in 6.2 mi SW 6.9 mph - N/A   Mostly Cloudy
10:30 AM 57.2 °F 50.0 °F 77% 29.56 in 6.2 mi WSW 9.2 mph - N/A   Mostly Cloudy
11:00 AM 60 °F 50 °F 61% 29.59 in 19 mi SW 11.5 mph - -   Scattered Clouds
11:00 AM 59.0 °F 50.0 °F 72% 29.56 in 6.2 mi SW 11.5 mph - N/A   Mostly Cloudy
11:30 AM 60.8 °F 48.2 °F 63% 29.59 in 6.2 mi WSW 12.7 mph - N/A   Mostly Cloudy
12:00 PM 64 °F 46 °F 41% 29.60 in - West 13.8 mph - -  
12:00 PM 62.6 °F 46.4 °F 55% 29.59 in 6.2 mi West 13.8 mph - N/A   Mostly Cloudy
12:30 PM 64.4 °F 44.6 °F 49% 29.59 in 6.2 mi West 18.4 mph - N/A   Partly Cloudy
1:00 PM 66 °F 44 °F 34% 29.59 in - West 16.1 mph - -  
1:00 PM 64.4 °F 44.6 °F 49% 29.59 in 6.2 mi West 16.1 mph - N/A   Partly Cloudy
1:30 PM 66.2 °F 41.0 °F 40% 29.56 in 6.2 mi West 16.1 mph - N/A   Partly Cloudy
2:00 PM 67 °F 41 °F 27% 29.58 in 19 mi West 13.8 mph - -   Partly Cloudy
2:00 PM 66.2 °F 41.0 °F 40% 29.56 in 6.2 mi West 15.0 mph - N/A   Scattered Clouds
2:30 PM 68.0 °F 41.0 °F 37% 29.56 in 6.2 mi West 17.3 mph - N/A   Scattered Clouds
3:00 PM 68 °F 38 °F 23% 29.57 in - West 17.3 mph - -  
3:00 PM 68.0 °F 39.2 °F 35% 29.56 in 6.2 mi West 17.3 mph - N/A   Scattered Clouds
3:30 PM 69.8 °F 35.6 °F 28% 29.56 in 6.2 mi WNW 19.6 mph 31.1 mph N/A   Scattered Clouds
4:00 PM 69 °F 36 °F 19% 29.57 in - West 20.7 mph - -  
4:00 PM 68.0 °F 37.4 °F 33% 29.56 in 6.2 mi West 20.7 mph - N/A   Scattered Clouds
4:30 PM 68.0 °F 37.4 °F 33% 29.56 in 6.2 mi WNW 18.4 mph - N/A   Scattered Clouds
5:00 PM 69 °F 34 °F 17% 29.58 in - West 20.7 mph - -  
5:00 PM 68.0 °F 33.8 °F 28% 29.56 in 6.2 mi WNW 19.6 mph - N/A   Scattered Clouds
5:30 PM 68.0 °F 35.6 °F 30% 29.56 in 6.2 mi WNW 15.0 mph - N/A   Scattered Clouds
6:00 PM 69 °F 34 °F 17% 29.59 in - West 17.3 mph - -  
6:00 PM 68.0 °F 33.8 °F 28% 29.56 in 6.2 mi West 16.1 mph 29.9 mph N/A   Scattered Clouds
6:30 PM 69.8 °F 35.6 °F 28% 29.59 in 6.2 mi WNW 23.0 mph - N/A   Scattered Clouds
7:00 PM 68 °F 37 °F 21% 29.61 in - West 15.0 mph - -  
7:00 PM 68.0 °F 37.4 °F 33% 29.59 in 6.2 mi West 16.1 mph - N/A   Partly Cloudy
7:30 PM 68.0 °F 37.4 °F 33% 29.62 in 6.2 mi WNW 19.6 mph - N/A   Partly Cloudy
8:00 PM 67 °F 36 °F 20% 29.64 in 19 mi West 19.6 mph - -  
8:30 PM 64.4 °F 35.6 °F 34% 29.65 in 6.2 mi West 13.8 mph - N/A   Partly Cloudy
9:00 PM 64 °F 36 °F 24% 29.67 in - West 12.7 mph - -  
9:00 PM 64.4 °F 37.4 °F 37% 29.65 in 6.2 mi West 13.8 mph 25.3 mph N/A   Partly Cloudy
9:30 PM 62.6 °F 39.2 °F 42% 29.68 in 6.2 mi WSW 6.9 mph - N/A   Partly Cloudy
10:00 PM 62 °F 39 °F 31% 29.70 in - WSW 10.4 mph - -  
10:00 PM 62.6 °F 39.2 °F 42% 29.68 in 6.2 mi WSW 9.2 mph - N/A   Partly Cloudy
10:30 PM 62.6 °F 39.2 °F 42% 29.71 in 6.2 mi West 15.0 mph - N/A   Partly Cloudy
11:00 PM 62 °F 40 °F 32% 29.73 in 19 mi West 13.8 mph - -  
11:00 PM 62.6 °F 41.0 °F 45% 29.71 in 6.2 mi West 13.8 mph - N/A   Partly Cloudy
11:30 PM 60.8 °F 41.0 °F 48% 29.71 in - West 12.7 mph - N/A   Clear